Saint Bonnet de Bellac- Haute Vienne - France
Donnes mto: vendredi, 16/03/2012
Date Horaire Temp. E. Hum. E. P.atmo. Pluie Vent Direction Direction Ensoleilleme Solaire P. de rose Temp au vent Rafales
16/03/2012 00:00 10,4 C 68 % 1023,8 hPa 0,0 mm 0,0 km/h (0 Bft) E 90 0 min 0 W/m 4,8 C 10,4 C 0,0 km/h (0 Bft)
16/03/2012 00:10 10,1 C 69 % 1023,8 hPa 0,0 mm 2,9 km/h (1 Bft) E-SE 112 0 min 0 W/m 4,7 C 10,1 C 4,3 km/h (1 Bft)
16/03/2012 00:20 10,0 C 70 % 1023,7 hPa 0,0 mm 4,0 km/h (1 Bft) SE 135 0 min 0 W/m 4,8 C 10,0 C 4,0 km/h (1 Bft)
16/03/2012 00:30 10,1 C 71 % 1023,6 hPa 0,0 mm 2,5 km/h (1 Bft) E-SE 112 0 min 0 W/m 5,1 C 10,1 C 4,0 km/h (1 Bft)
16/03/2012 00:40 10,1 C 71 % 1023,5 hPa 0,0 mm 2,9 km/h (1 Bft) E 90 0 min 0 W/m 5,1 C 10,1 C 6,5 km/h (2 Bft)
16/03/2012 00:50 9,9 C 71 % 1023,5 hPa 0,0 mm 2,2 km/h (1 Bft) E 90 0 min 0 W/m 4,9 C 9,9 C 6,8 km/h (2 Bft)
16/03/2012 01:00 9,6 C 71 % 1023,4 hPa 0,0 mm 0,0 km/h (0 Bft) E-SE 112 0 min 0 W/m 4,6 C 9,6 C 0,0 km/h (0 Bft)
16/03/2012 01:10 9,3 C 72 % 1023,4 hPa 0,0 mm 1,4 km/h (1 Bft) E-SE 112 0 min 0 W/m 4,5 C 9,3 C 3,2 km/h (1 Bft)
16/03/2012 01:20 9,1 C 72 % 1023,4 hPa 0,0 mm 0,4 km/h (0 Bft) E-SE 112 0 min 0 W/m 4,3 C 9,1 C 3,2 km/h (1 Bft)
16/03/2012 01:30 8,9 C 73 % 1023,3 hPa 0,0 mm 0,7 km/h (0 Bft) E 90 0 min 0 W/m 4,3 C 8,9 C 4,0 km/h (1 Bft)
16/03/2012 01:40 8,7 C 74 % 1023,2 hPa 0,0 mm 1,4 km/h (1 Bft) E-SE 112 0 min 0 W/m 4,3 C 8,7 C 3,6 km/h (1 Bft)
16/03/2012 01:50 8,4 C 75 % 1023,2 hPa 0,0 mm 3,6 km/h (1 Bft) E 90 0 min 0 W/m 4,2 C 8,4 C 4,3 km/h (1 Bft)
16/03/2012 02:02 8,3 C 76 % 1023,1 hPa 0,0 mm 6,5 km/h (2 Bft) E 90 0 min 0 W/m 4,3 C 7,4 C 7,6 km/h (2 Bft)
16/03/2012 02:10 8,0 C 76 % 1023,1 hPa 0,0 mm 4,7 km/h (1 Bft) E-SE 112 0 min 0 W/m 4,0 C 7,6 C 7,9 km/h (2 Bft)
16/03/2012 02:20 7,8 C 77 % 1023,1 hPa 0,0 mm 1,8 km/h (1 Bft) E 90 0 min 0 W/m 4,0 C 7,8 C 3,6 km/h (1 Bft)
16/03/2012 02:30 7,5 C 77 % 1022,9 hPa 0,0 mm 2,5 km/h (1 Bft) E-SE 112 0 min 0 W/m 3,7 C 7,5 C 2,9 km/h (1 Bft)
16/03/2012 02:40 7,3 C 77 % 1022,8 hPa 0,0 mm 2,9 km/h (1 Bft) E-SE 112 0 min 0 W/m 3,5 C 7,3 C 4,3 km/h (1 Bft)
16/03/2012 02:50 7,1 C 78 % 1022,7 hPa 0,0 mm 2,5 km/h (1 Bft) SE 135 0 min 0 W/m 3,5 C 7,1 C 6,5 km/h (2 Bft)
16/03/2012 03:00 7,1 C 79 % 1022,6 hPa 0,0 mm 0,7 km/h (0 Bft) E-SE 112 0 min 0 W/m 3,7 C 7,1 C 3,2 km/h (1 Bft)
16/03/2012 03:10 7,0 C 79 % 1022,4 hPa 0,0 mm 3,2 km/h (1 Bft) E-SE 112 0 min 0 W/m 3,6 C 7,0 C 6,1 km/h (2 Bft)
16/03/2012 03:20 6,9 C 79 % 1022,3 hPa 0,0 mm 2,2 km/h (1 Bft) E-SE 112 0 min 0 W/m 3,5 C 6,9 C 4,3 km/h (1 Bft)
16/03/2012 03:30 6,9 C 80 % 1022,2 hPa 0,0 mm 1,4 km/h (1 Bft) E-SE 112 0 min 0 W/m 3,7 C 6,9 C 3,2 km/h (1 Bft)
16/03/2012 03:40 6,9 C 79 % 1022,2 hPa 0,0 mm 0,0 km/h (0 Bft) E-SE 112 0 min 0 W/m 3,5 C 6,9 C 3,2 km/h (1 Bft)
16/03/2012 03:50 6,8 C 79 % 1022,1 hPa 0,0 mm 1,4 km/h (1 Bft) E 90 0 min 0 W/m 3,4 C 6,8 C 4,3 km/h (1 Bft)
16/03/2012 04:00 6,8 C 79 % 1022,0 hPa 0,0 mm 1,1 km/h (1 Bft) E-SE 112 0 min 0 W/m 3,4 C 6,8 C 3,6 km/h (1 Bft)
16/03/2012 04:10 6,6 C 79 % 1022,0 hPa 0,0 mm 0,0 km/h (0 Bft) E-SE 112 0 min 0 W/m 3,2 C 6,6 C 0,0 km/h (0 Bft)
16/03/2012 04:20 6,6 C 79 % 1021,9 hPa 0,0 mm 1,1 km/h (1 Bft) E-SE 112 0 min 0 W/m 3,2 C 6,6 C 3,6 km/h (1 Bft)
16/03/2012 04:30 6,4 C 79 % 1021,9 hPa 0,0 mm 1,4 km/h (1 Bft) E 90 0 min 0 W/m 3,0 C 6,4 C 3,6 km/h (1 Bft)
16/03/2012 04:40 6,3 C 79 % 1021,9 hPa 0,0 mm 0,0 km/h (0 Bft) E-SE 112 0 min 0 W/m 2,9 C 6,3 C 3,2 km/h (1 Bft)
16/03/2012 04:50 6,2 C 80 % 1022,0 hPa 0,0 mm 3,2 km/h (1 Bft) E-NE 67 0 min 0 W/m 3,0 C 6,2 C 4,3 km/h (1 Bft)
16/03/2012 05:00 6,3 C 80 % 1021,9 hPa 0,0 mm 4,3 km/h (1 Bft) E-SE 112 0 min 0 W/m 3,1 C 6,3 C 7,6 km/h (2 Bft)
16/03/2012 05:10 6,6 C 80 % 1021,8 hPa 0,0 mm 0,0 km/h (0 Bft) S-SE 157 0 min 0 W/m 3,4 C 6,6 C 0,0 km/h (0 Bft)
16/03/2012 05:20 6,6 C 79 % 1021,8 hPa 0,0 mm 3,6 km/h (1 Bft) E 90 0 min 0 W/m 3,2 C 6,6 C 4,3 km/h (1 Bft)
16/03/2012 05:30 6,6 C 79 % 1021,8 hPa 0,0 mm 1,4 km/h (1 Bft) E 90 0 min 0 W/m 3,2 C 6,6 C 4,0 km/h (1 Bft)
16/03/2012 05:40 6,5 C 79 % 1021,8 hPa 0,0 mm 0,7 km/h (0 Bft) E 90 0 min 0 W/m 3,1 C 6,5 C 3,2 km/h (1 Bft)
16/03/2012 05:50 6,4 C 79 % 1021,8 hPa 0,0 mm 1,1 km/h (1 Bft) E-SE 112 0 min 0 W/m 3,0 C 6,4 C 3,2 km/h (1 Bft)
16/03/2012 06:00 6,4 C 79 % 1021,8 hPa 0,0 mm 1,4 km/h (1 Bft) E-SE 112 0 min 0 W/m 3,0 C 6,4 C 2,9 km/h (1 Bft)
16/03/2012 06:10 6,5 C 78 % 1021,7 hPa 0,0 mm 5,8 km/h (2 Bft) E-SE 112 0 min 0 W/m 2,9 C 5,5 C 8,3 km/h (2 Bft)
16/03/2012 06:20 6,8 C 78 % 1021,6 hPa 0,0 mm 3,6 km/h (1 Bft) E-SE 112 0 min 0 W/m 3,2 C 6,8 C 7,6 km/h (2 Bft)
16/03/2012 06:30 7,0 C 77 % 1021,5 hPa 0,0 mm 0,0 km/h (0 Bft) E 90 0 min 0 W/m 3,2 C 7,0 C 0,0 km/h (0 Bft)
16/03/2012 06:40 7,1 C 76 % 1021,6 hPa 0,0 mm 0,0 km/h (0 Bft) E-SE 112 0 min 0 W/m 3,2 C 7,1 C 0,0 km/h (0 Bft)
16/03/2012 06:50 6,9 C 76 % 1021,7 hPa 0,0 mm 2,2 km/h (1 Bft) E-SE 112 0 min 0 W/m 3,0 C 6,9 C 4,3 km/h (1 Bft)
16/03/2012 07:00 7,3 C 75 % 1021,7 hPa 0,0 mm 0,0 km/h (0 Bft) E-SE 112 0 min 0 W/m 3,2 C 7,3 C 0,0 km/h (0 Bft)
16/03/2012 07:10 7,4 C 75 % 1021,7 hPa 0,0 mm 0,0 km/h (0 Bft) E-SE 112 0 min 0 W/m 3,3 C 7,4 C 0,0 km/h (0 Bft)
16/03/2012 07:20 7,6 C 74 % 1021,8 hPa 0,0 mm 1,8 km/h (1 Bft) E-SE 112 2 min 0 W/m 3,3 C 7,6 C 3,6 km/h (1 Bft)
16/03/2012 07:30 7,6 C 73 % 1021,8 hPa 0,0 mm 0,4 km/h (0 Bft) E-SE 112 2 min 0 W/m 3,1 C 7,6 C 0,4 km/h (0 Bft)
16/03/2012 07:40 7,6 C 73 % 1021,9 hPa 0,0 mm 0,4 km/h (0 Bft) E-SE 112 2 min 0 W/m 3,1 C 7,6 C 0,4 km/h (0 Bft)
16/03/2012 07:50 7,8 C 73 % 1021,9 hPa 0,0 mm 1,8 km/h (1 Bft) E-SE 112 2 min 0 W/m 3,3 C 7,8 C 3,6 km/h (1 Bft)
16/03/2012 08:00 8,1 C 72 % 1022,0 hPa 0,0 mm 2,9 km/h (1 Bft) E-SE 112 2 min 0 W/m 3,4 C 8,1 C 6,5 km/h (2 Bft)
16/03/2012 08:10 8,6 C 72 % 1021,9 hPa 0,0 mm 1,1 km/h (1 Bft) E-SE 112 2 min 0 W/m 3,8 C 8,6 C 4,3 km/h (1 Bft)
16/03/2012 08:20 9,3 C 71 % 1022,1 hPa 0,0 mm 0,0 km/h (0 Bft) E-SE 112 2 min 0 W/m 4,3 C 9,3 C 0,0 km/h (0 Bft)
16/03/2012 08:30 10,1 C 70 % 1022,0 hPa 0,0 mm 0,0 km/h (0 Bft) E-SE 112 2 min 0 W/m 4,9 C 10,1 C 0,0 km/h (0 Bft)
16/03/2012 08:40 10,8 C 69 % 1022,1 hPa 0,0 mm 0,0 km/h (0 Bft) E-SE 112 2 min 0 W/m 5,3 C 10,8 C 0,0 km/h (0 Bft)
16/03/2012 08:50 11,8 C 67 % 1022,2 hPa 0,0 mm 0,0 km/h (0 Bft) E-SE 112 2 min 0 W/m 5,9 C 11,8 C 0,0 km/h (0 Bft)
16/03/2012 09:00 12,6 C 66 % 1022,3 hPa 0,0 mm 0,0 km/h (0 Bft) E-SE 112 2 min 0 W/m 6,4 C 12,6 C 0,0 km/h (0 Bft)
16/03/2012 09:10 13,5 C 64 % 1022,3 hPa 0,0 mm 0,0 km/h (0 Bft) E-SE 112 2 min 0 W/m 6,8 C 13,5 C 0,0 km/h (0 Bft)
16/03/2012 09:20 14,5 C 64 % 1022,3 hPa 0,0 mm 0,0 km/h (0 Bft) E-SE 112 2 min 0 W/m 7,8 C 14,5 C 0,0 km/h (0 Bft)
16/03/2012 09:30 15,4 C 62 % 1022,4 hPa 0,0 mm 0,0 km/h (0 Bft) E-SE 112 2 min 0 W/m 8,2 C 15,4 C 0,0 km/h (0 Bft)
16/03/2012 09:40 16,6 C 61 % 1022,4 hPa 0,0 mm 0,0 km/h (0 Bft) E-SE 112 2 min 0 W/m 9,0 C 16,6 C 0,0 km/h (0 Bft)
16/03/2012 09:50 17,4 C 57 % 1022,4 hPa 0,0 mm 0,0 km/h (0 Bft) S 180 2 min 0 W/m 8,8 C 17,4 C 3,2 km/h (1 Bft)
16/03/2012 10:00 18,3 C 52 % 1022,3 hPa 0,0 mm 0,7 km/h (0 Bft) S 180 2 min 0 W/m 8,3 C 18,3 C 0,7 km/h (0 Bft)
16/03/2012 10:10 19,2 C 49 % 1022,3 hPa 0,0 mm 4,7 km/h (1 Bft) S-SO 202 2 min 0 W/m 8,2 C 19,2 C 9,0 km/h (2 Bft)
16/03/2012 10:20 19,8 C 47 % 1022,3 hPa 0,0 mm 0,7 km/h (0 Bft) O-SO 247 2 min 0 W/m 8,2 C 19,8 C 0,7 km/h (0 Bft)
16/03/2012 10:30 20,1 C 42 % 1022,3 hPa 0,0 mm 4,3 km/h (1 Bft) S-SO 202 2 min 0 W/m 6,8 C 20,1 C 7,2 km/h (2 Bft)
16/03/2012 10:40 20,4 C 41 % 1022,3 hPa 0,0 mm 2,9 km/h (1 Bft) S 180 2 min 0 W/m 6,7 C 20,4 C 8,6 km/h (2 Bft)
16/03/2012 10:50 20,8 C 40 % 1022,3 hPa 0,0 mm 2,9 km/h (1 Bft) SO 225 2 min 0 W/m 6,7 C 20,8 C 7,6 km/h (2 Bft)
16/03/2012 11:00 21,2 C 40 % 1022,2 hPa 0,0 mm 4,3 km/h (1 Bft) S-SO 202 2 min 0 W/m 7,1 C 21,2 C 4,3 km/h (1 Bft)
16/03/2012 11:10 21,8 C 40 % 1022,1 hPa 0,0 mm 1,4 km/h (1 Bft) S 180 2 min 0 W/m 7,6 C 21,8 C 1,4 km/h (1 Bft)
16/03/2012 11:20 22,3 C 38 % 1022,1 hPa 0,0 mm 3,6 km/h (1 Bft) S 180 2 min 0 W/m 7,3 C 22,3 C 3,6 km/h (1 Bft)
16/03/2012 11:30 22,4 C 38 % 1022,0 hPa 0,0 mm 7,9 km/h (2 Bft) SE 135 2 min 0 W/m 7,4 C 22,4 C 11,2 km/h (2 Bft)
16/03/2012 11:40 22,6 C 39 % 1021,9 hPa 0,0 mm 8,6 km/h (2 Bft) S 180 2 min 0 W/m 7,9 C 22,6 C 11,9 km/h (2 Bft)
16/03/2012 11:50 22,8 C 36 % 1021,9 hPa 0,0 mm 8,3 km/h (2 Bft) S-SE 157 2 min 0 W/m 6,9 C 22,8 C 12,6 km/h (3 Bft)
16/03/2012 12:00 23,2 C 36 % 1021,8 hPa 0,0 mm 6,8 km/h (2 Bft) S 180 2 min 0 W/m 7,3 C 23,2 C 12,2 km/h (2 Bft)
16/03/2012 12:10 23,4 C 37 % 1021,7 hPa 0,0 mm 10,1 km/h (2 Bft) S-SE 157 2 min 0 W/m 7,9 C 23,4 C 12,2 km/h (2 Bft)
16/03/2012 12:20 23,4 C 34 % 1021,6 hPa 0,0 mm 8,3 km/h (2 Bft) S-SO 202 2 min 0 W/m 6,6 C 23,4 C 13,7 km/h (3 Bft)
16/03/2012 12:30 23,6 C 35 % 1021,4 hPa 0,0 mm 2,9 km/h (1 Bft) S 180 2 min 0 W/m 7,2 C 23,6 C 5,8 km/h (2 Bft)
16/03/2012 12:40 23,8 C 35 % 1021,6 hPa 0,0 mm 7,2 km/h (2 Bft) S-SE 157 2 min 0 W/m 7,4 C 23,8 C 11,2 km/h (2 Bft)
16/03/2012 12:50 23,8 C 35 % 1021,5 hPa 0,0 mm 2,2 km/h (1 Bft) S 180 2 min 0 W/m 7,4 C 23,8 C 4,7 km/h (1 Bft)
16/03/2012 13:00 24,1 C 35 % 1021,4 hPa 0,0 mm 2,5 km/h (1 Bft) S-SO 202 2 min 0 W/m 7,7 C 24,1 C 4,0 km/h (1 Bft)
16/03/2012 13:10 24,3 C 35 % 1021,3 hPa 0,0 mm 2,9 km/h (1 Bft) SE 135 2 min 0 W/m 7,8 C 24,3 C 4,0 km/h (1 Bft)
16/03/2012 13:20 24,3 C 34 % 1021,2 hPa 0,0 mm 2,5 km/h (1 Bft) SO 225 2 min 0 W/m 7,4 C 24,3 C 6,1 km/h (2 Bft)
16/03/2012 13:30 24,3 C 33 % 1020,9 hPa 0,0 mm 7,6 km/h (2 Bft) S-SO 202 2 min 0 W/m 7,0 C 24,3 C 8,6 km/h (2 Bft)
16/03/2012 13:40 24,4 C 32 % 1020,8 hPa 0,0 mm 6,5 km/h (2 Bft) S 180 2 min 0 W/m 6,6 C 24,4 C 8,6 km/h (2 Bft)
16/03/2012 13:50 24,4 C 32 % 1020,8 hPa 0,0 mm 3,2 km/h (1 Bft) S-SO 202 2 min 0 W/m 6,6 C 24,4 C 6,1 km/h (2 Bft)
16/03/2012 14:00 24,5 C 34 % 1020,6 hPa 0,0 mm 2,5 km/h (1 Bft) E-SE 112 2 min 0 W/m 7,6 C 24,5 C 3,6 km/h (1 Bft)
16/03/2012 14:10 24,4 C 32 % 1020,4 hPa 0,0 mm 4,0 km/h (1 Bft) O-SO 247 2 min 0 W/m 6,6 C 24,4 C 7,9 km/h (2 Bft)
16/03/2012 14:20 24,3 C 33 % 1020,1 hPa 0,0 mm 1,8 km/h (1 Bft) O-SO 247 2 min 0 W/m 7,0 C 24,3 C 7,9 km/h (2 Bft)
16/03/2012 14:30 24,2 C 35 % 1020,0 hPa 0,0 mm 3,6 km/h (1 Bft) O 270 2 min 0 W/m 7,8 C 24,2 C 12,6 km/h (3 Bft)
16/03/2012 14:40 24,1 C 34 % 1019,8 hPa 0,0 mm 5,4 km/h (2 Bft) SO 225 2 min 0 W/m 7,2 C 24,1 C 11,2 km/h (2 Bft)
16/03/2012 14:50 23,8 C 35 % 1019,7 hPa 0,0 mm 2,5 km/h (1 Bft) SO 225 2 min 0 W/m 7,4 C 23,8 C 6,8 km/h (2 Bft)
16/03/2012 15:00 23,8 C 36 % 1019,5 hPa 0,0 mm 2,2 km/h (1 Bft) O 270 2 min 0 W/m 7,8 C 23,8 C 7,6 km/h (2 Bft)
16/03/2012 15:10 23,6 C 35 % 1019,4 hPa 0,0 mm 5,0 km/h (1 Bft) S-SO 202 2 min 0 W/m 7,2 C 23,6 C 6,8 km/h (2 Bft)
16/03/2012 15:20 23,5 C 35 % 1019,3 hPa 0,0 mm 1,4 km/h (1 Bft) O-SO 247 0 min 0 W/m 7,1 C 23,5 C 6,5 km/h (2 Bft)
16/03/2012 15:30 23,3 C 36 % 1019,2 hPa 0,0 mm 3,6 km/h (1 Bft) S-SO 202 0 min 0 W/m 7,4 C 23,3 C 3,6 km/h (1 Bft)
16/03/2012 15:40 23,1 C 38 % 1019,2 hPa 0,0 mm 3,6 km/h (1 Bft) O-SO 247 0 min 0 W/m 8,0 C 23,1 C 4,7 km/h (1 Bft)
16/03/2012 15:50 23,1 C 39 % 1019,0 hPa 0,0 mm 2,9 km/h (1 Bft) S-SO 202 0 min 0 W/m 8,4 C 23,1 C 7,9 km/h (2 Bft)
16/03/2012 16:00 22,9 C 38 % 1018,8 hPa 0,0 mm 4,7 km/h (1 Bft) S-SO 202 0 min 0 W/m 7,8 C 22,9 C 7,9 km/h (2 Bft)
16/03/2012 16:10 22,6 C 38 % 1018,8 hPa 0,0 mm 2,9 km/h (1 Bft) O 270 0 min 0 W/m 7,6 C 22,6 C 10,8 km/h (2 Bft)
16/03/2012 16:20 22,5 C 39 % 1018,7 hPa 0,0 mm 3,6 km/h (1 Bft) O 270 0 min 0 W/m 7,8 C 22,5 C 7,6 km/h (2 Bft)
16/03/2012 16:30 22,4 C 40 % 1018,7 hPa 0,0 mm 3,6 km/h (1 Bft) N 360 0 min 0 W/m 8,1 C 22,4 C 3,6 km/h (1 Bft)
16/03/2012 16:40 22,2 C 41 % 1018,6 hPa 0,0 mm 2,9 km/h (1 Bft) S-SO 202 0 min 0 W/m 8,3 C 22,2 C 6,1 km/h (2 Bft)
16/03/2012 16:50 22,1 C 41 % 1018,5 hPa 0,0 mm 3,2 km/h (1 Bft) O 270 0 min 0 W/m 8,2 C 22,1 C 8,6 km/h (2 Bft)
16/03/2012 17:00 22,0 C 40 % 1018,4 hPa 0,0 mm 6,1 km/h (2 Bft) O 270 0 min 0 W/m 7,8 C 22,0 C 6,1 km/h (2 Bft)
16/03/2012 17:10 21,9 C 42 % 1018,3 hPa 0,0 mm 3,2 km/h (1 Bft) O 270 0 min 0 W/m 8,4 C 21,9 C 3,2 km/h (1 Bft)
16/03/2012 17:20 21,8 C 43 % 1018,3 hPa 0,0 mm 2,5 km/h (1 Bft) O 270 0 min 0 W/m 8,7 C 21,8 C 2,9 km/h (1 Bft)
16/03/2012 17:30 21,4 C 43 % 1018,2 hPa 0,0 mm 1,1 km/h (1 Bft) O-SO 247 2 min 0 W/m 8,3 C 21,4 C 3,2 km/h (1 Bft)
16/03/2012 17:40 21,2 C 44 % 1018,0 hPa 0,0 mm 1,1 km/h (1 Bft) O-SO 247 2 min 0 W/m 8,5 C 21,2 C 4,3 km/h (1 Bft)
16/03/2012 17:50 20,9 C 45 % 1018,0 hPa 0,0 mm 0,4 km/h (0 Bft) O-SO 247 2 min 0 W/m 8,5 C 20,9 C 0,4 km/h (0 Bft)
16/03/2012 18:00 20,6 C 46 % 1018,0 hPa 0,0 mm 0,4 km/h (0 Bft) SO 225 2 min 0 W/m 8,6 C 20,6 C 3,2 km/h (1 Bft)
16/03/2012 18:10 20,3 C 46 % 1018,1 hPa 0,0 mm 0,4 km/h (0 Bft) O-SO 247 2 min 0 W/m 8,3 C 20,3 C 4,0 km/h (1 Bft)
16/03/2012 18:20 20,0 C 47 % 1018,2 hPa 0,0 mm 0,0 km/h (0 Bft) O-SO 247 2 min 0 W/m 8,3 C 20,0 C 0,0 km/h (0 Bft)
16/03/2012 18:30 19,4 C 52 % 1018,3 hPa 0,0 mm 0,0 km/h (0 Bft) O 270 2 min 0 W/m 9,3 C 19,4 C 0,0 km/h (0 Bft)
16/03/2012 18:40 18,8 C 53 % 1018,3 hPa 0,0 mm 0,0 km/h (0 Bft) O 270 2 min 0 W/m 9,0 C 18,8 C 3,2 km/h (1 Bft)
16/03/2012 18:50 18,1 C 55 % 1018,3 hPa 0,0 mm 0,0 km/h (0 Bft) O-SO 247 2 min 0 W/m 8,9 C 18,1 C 0,0 km/h (0 Bft)
16/03/2012 19:00 17,4 C 55 % 1018,3 hPa 0,0 mm 0,0 km/h (0 Bft) O-SO 247 0 min 0 W/m 8,3 C 17,4 C 0,0 km/h (0 Bft)
16/03/2012 19:10 16,6 C 57 % 1018,3 hPa 0,0 mm 0,0 km/h (0 Bft) O-SO 247 0 min 0 W/m 8,0 C 16,6 C 0,0 km/h (0 Bft)
16/03/2012 19:20 15,9 C 60 % 1018,5 hPa 0,0 mm 0,0 km/h (0 Bft) O-SO 247 0 min 0 W/m 8,1 C 15,9 C 0,0 km/h (0 Bft)
16/03/2012 19:30 15,4 C 60 % 1018,6 hPa 0,0 mm 0,0 km/h (0 Bft) O 270 0 min 0 W/m 7,7 C 15,4 C 0,0 km/h (0 Bft)
16/03/2012 19:40 14,8 C 63 % 1018,6 hPa 0,0 mm 0,0 km/h (0 Bft) O 270 0 min 0 W/m 7,8 C 14,8 C 0,0 km/h (0 Bft)
16/03/2012 19:50 14,3 C 64 % 1018,7 hPa 0,0 mm 0,0 km/h (0 Bft) O 270 0 min 0 W/m 7,6 C 14,3 C 0,0 km/h (0 Bft)
16/03/2012 20:00 13,8 C 67 % 1018,9 hPa 0,0 mm 0,0 km/h (0 Bft) O-SO 247 0 min 0 W/m 7,8 C 13,8 C 0,0 km/h (0 Bft)
16/03/2012 20:10 13,4 C 71 % 1018,8 hPa 0,0 mm 0,4 km/h (0 Bft) S 180 0 min 0 W/m 8,3 C 13,4 C 0,4 km/h (0 Bft)
16/03/2012 20:20 13,2 C 72 % 1018,9 hPa 0,0 mm 0,0 km/h (0 Bft) O 270 0 min 0 W/m 8,3 C 13,2 C 0,0 km/h (0 Bft)
16/03/2012 20:30 12,9 C 72 % 1019,0 hPa 0,0 mm 1,4 km/h (1 Bft) O 270 0 min 0 W/m 8,0 C 12,9 C 4,0 km/h (1 Bft)
16/03/2012 20:40 12,6 C 74 % 1019,2 hPa 0,0 mm 0,4 km/h (0 Bft) SO 225 0 min 0 W/m 8,1 C 12,6 C 0,4 km/h (0 Bft)
16/03/2012 20:50 12,3 C 74 % 1019,2 hPa 0,0 mm 0,0 km/h (0 Bft) O 270 0 min 0 W/m 7,8 C 12,3 C 0,0 km/h (0 Bft)
16/03/2012 21:00 12,1 C 77 % 1019,3 hPa 0,0 mm 0,4 km/h (0 Bft) O-SO 247 0 min 0 W/m 8,2 C 12,1 C 4,0 km/h (1 Bft)
16/03/2012 21:10 11,8 C 77 % 1019,3 hPa 0,0 mm 0,0 km/h (0 Bft) O-SO 247 0 min 0 W/m 7,9 C 11,8 C 1,4 km/h (1 Bft)
16/03/2012 21:20 11,6 C 78 % 1019,4 hPa 0,0 mm 1,4 km/h (1 Bft) SO 225 0 min 0 W/m 7,9 C 11,6 C 4,3 km/h (1 Bft)
16/03/2012 21:30 11,4 C 79 % 1019,4 hPa 0,0 mm 0,0 km/h (0 Bft) O 270 0 min 0 W/m 7,9 C 11,4 C 0,0 km/h (0 Bft)
16/03/2012 21:40 11,2 C 80 % 1019,5 hPa 0,0 mm 0,4 km/h (0 Bft) SO 225 0 min 0 W/m 7,9 C 11,2 C 2,9 km/h (1 Bft)
16/03/2012 21:50 10,9 C 78 % 1019,4 hPa 0,0 mm 1,1 km/h (1 Bft) O-SO 247 0 min 0 W/m 7,2 C 10,9 C 5,8 km/h (2 Bft)
16/03/2012 22:00 10,6 C 79 % 1019,4 hPa 0,0 mm 0,0 km/h (0 Bft) O 270 0 min 0 W/m 7,1 C 10,6 C 0,0 km/h (0 Bft)
16/03/2012 22:10 10,4 C 79 % 1019,5 hPa 0,0 mm 0,0 km/h (0 Bft) O 270 0 min 0 W/m 6,9 C 10,4 C 0,0 km/h (0 Bft)
16/03/2012 22:20 10,1 C 80 % 1019,4 hPa 0,0 mm 0,0 km/h (0 Bft) O 270 0 min 0 W/m 6,8 C 10,1 C 0,0 km/h (0 Bft)
16/03/2012 22:30 9,9 C 81 % 1019,4 hPa 0,0 mm 0,0 km/h (0 Bft) O 270 0 min 0 W/m 6,8 C 9,9 C 0,0 km/h (0 Bft)
16/03/2012 22:40 9,8 C 81 % 1019,5 hPa 0,0 mm 0,0 km/h (0 Bft) O 270 0 min 0 W/m 6,7 C 9,8 C 0,0 km/h (0 Bft)
16/03/2012 22:50 9,6 C 80 % 1019,7 hPa 0,0 mm 2,9 km/h (1 Bft) SE 135 0 min 0 W/m 6,3 C 9,6 C 4,3 km/h (1 Bft)
16/03/2012 23:00 9,6 C 82 % 1019,7 hPa 0,0 mm 0,4 km/h (0 Bft) O-SO 247 0 min 0 W/m 6,7 C 9,6 C 0,4 km/h (0 Bft)
16/03/2012 23:10 9,4 C 82 % 1019,8 hPa 0,0 mm 0,0 km/h (0 Bft) O-SO 247 0 min 0 W/m 6,5 C 9,4 C 0,0 km/h (0 Bft)
_ Min-Heure 04:50 14:10 18:00 - 23:10 - - - - 04:40 06:10 23:10
Minimum _ 6,2 C 32 % 1018,0 hPa - 0,0 km/h (0 Bft) - - - - 2,9 C 5,5 C 0,0 km/h (0 Bft)
_ Max-Heure 14:00 23:10 00:10 23:10 12:10 - - 18:50 23:10 18:30 14:00 12:20
Maximum _ 24,5 C 82 % 1023,8 hPa 0,0 mm 10,1 km/h
S-SE (2 Bft)
- - 2 min 0 W/m 9,3 C 24,5 C 13,7 km/h
S-SO (3 Bft)
Moyenne _ 14,6 C 61 % 1020,9 hPa #0,0 mm 2,1 km/h (1 Bft) E-SE - #1:54 h 0 W/m 6,2 C 14,6 C 4,0 km/h (1 Bft)
Saint Bonnet de Bellac- Haute Vienne - France